User: anonymous   Login
Location: Copper Breaks State Park
(34.1132°N, 99.7492°W)
Time: 14:29:24
(UTC-05:00)
Language:

SL-16 R/B - Orbit

View from above orbital plane
View from above orbital plane
View from above satellite
View from above satellite

Ground track
Ground track

The orbit data is extracted from the following two-line orbital elements,

1 27006U 01056F   18147.24754399 -.00000044 +00000-0 -11864-5 0  9996
2 27006 099.3646 283.7160 0015317 132.1682 289.4105 13.70966285823550
Epoch (UTC): 27 May 2018 05:56:27
Eccentricity: 0.0015317
inclination: 99.3646°
perigee height: 985 km
apogee height: 1007 km
right ascension of ascending node: 283.7160°
argument of perigee: 132.1682°
revolutions per day: 13.70966285
mean anomaly at epoch: 289.4105°
orbit number at epoch: 82355

The dashed part of the orbit path shows where the satellite is in the earth's shadow,  

DLR